Dewpoint
69 69 69 69 69 70 69 67 70 70 68 66 63 65 64 63 63 62 61 62 61 59
71 70 69 69 69 69 68 67 69 69 67 65 63 65 65 63 63 63 62 61 61 61
70 71 70 70 70 68 67 67 68 69 67 65 63 66 65 64 63 63 64 62 60 60
71 70 71 72 71 69 67 67 67 69 67 65 64 63 66 64 64 62 62 64 62 61
71 71 70 70 72 70 68 67 67 68 68 66 65 64 64 64 63 63 62 61 63 62
72 72 71 70 70 71 69 68 68 68 68 66 65 65 65 64 64 62 62 63 62 61
72 73 72 71 70 71 71 69 68 68 68 67 65 64 66 65 64 63 62 63 63 63
71 72 73 72 71 70 72 70 69 69 68 67 66 65 64 65 64 63 63 63 63 64
72 71 72 72 72 72 71 72 70 68 68 67 66 65 65 65 64 63 63 62 63 63
72 72 72 72 72 73 72 71 71 69 68 67 67 65 64 65 64 64 64 63 62 63
71 71 72 72 72 72 73 71 72 70 69 68 68 66 64 64 65 64 64 64 63 62
71 71 71 71 72 72 72 73 72 72 70 69 68 66 63 64 64 64 64 64 64 64
70 70 70 71 71 72 72 72 72 73 71 69 69 65 63 65 64 63 63 63 63 63
69 69 70 70 71 71 72 72 73 72 70 69 68 64 62 63 63 62 61 60 60 62
Wind_Speed
24 21 19 19 17 18 19 21 18 20 20 20 19 19 16 14 11 10 9 8 5 4
23 23 21 19 18 18 17 16 20 20 21 20 20 19 17 14 12 10 10 10 6 7
27 25 20 19 22 20 19 18 19 20 21 20 19 19 18 16 13 15 14 12 10 10
25 24 23 23 21 22 21 21 21 22 21 21 21 20 20 20 19 16 17 12 14 15
26 25 26 27 22 20 24 22 23 22 23 22 22 21 22 23 19 22 21 18 15 17
28 27 30 29 26 21 23 21 21 22 24 24 22 21 21 21 23 23 20 18 18 18
30 32 31 29 26 25 23 21 22 22 22 22 22 23 22 22 23 18 20 18 18 18
33 31 29 27 26 24 24 22 21 21 20 20 22 22 24 23 21 21 21 18 16 15
32 30 30 28 26 24 24 24 21 23 23 23 22 25 28 24 21 20 21 21 16 13
31 32 31 28 26 26 27 22 22 21 22 24 25 27 31 28 17 19 19 18 19 16
31 32 30 28 29 26 25 26 23 23 24 24 24 26 28 26 17 17 18 20 20 19
32 31 30 31 29 26 24 24 23 24 23 25 21 27 28 24 17 16 17 15 15 16
33 31 32 30 28 25 25 26 23 21 21 24 22 25 27 24 17 15 15 13 12 15
31 32 30 26 24 25 25 20 21 20 17 18 19 21 25 23 16 16 15 13 14 13
Wind_Direction
194 200 204 207 198 200 196 197 190 186 184 184 183 183 184 188 194 191 208 213 196 200
193 199 202 203 199 196 191 190 184 181 183 188 186 184 188 193 198 199 216 223 210 227
198 200 197 197 200 197 197 193 185 183 187 190 186 186 187 195 199 205 214 218 218 230
197 200 201 208 203 198 196 198 187 190 188 190 191 190 191 198 202 211 219 222 222 235
193 193 201 210 208 196 200 196 193 189 190 191 194 193 196 203 206 211 216 223 220 230
194 194 204 210 208 201 205 196 191 189 192 193 193 197 200 204 207 210 216 217 223 229
195 199 203 208 206 205 202 201 196 193 191 192 194 199 202 206 210 206 212 212 219 225
199 200 203 206 206 205 205 203 197 194 193 191 195 202 203 207 208 203 208 212 218 223
198 198 202 203 202 200 201 203 190 193 193 191 200 209 205 204 205 201 205 213 217 223
196 198 200 200 198 199 201 194 196 190 190 198 205 208 208 206 193 192 201 212 213 222
198 199 198 196 200 198 196 199 193 194 196 201 207 205 205 197 189 196 206 207 212 221
200 197 195 199 197 194 194 197 197 200 195 199 203 202 196 180 187 192 206 206 210 217
195 195 195 197 195 191 193 198 195 194 193 194 200 196 186 179 179 186 195 202 210 221
192 193 195 190 188 191 191 183 183 181 176 186 189 187 177 172 174 195 201 212 226 228